Vorticity
nan nan nan nan nan nan nan nan nan nan nan nan nan nan nan nan nan nan nan nan nan nan nan nan nan nan nan nan nan nan nan nan nan nan nan nan nan nan nan nan nan nan nan nan
nan 11 7 11 12 8 4 4 6 4 9 7 9 8 5 6 11 12 13 10 10 9 7 7 7 6 8 8 7 4 9 9 6 7 7 8 8 9 8 7 9 10 8 nan
nan 4 17 10 8 10 7 5 2 5 7 6 12 13 10 10 3 8 9 12 14 10 8 7 7 7 8 8 8 7 10 6 6 6 7 7 4 7 12 11 8 10 8 nan
nan 4 9 13 6 7 8 10 5 7 3 7 6 11 12 11 8 8 8 13 11 12 8 9 8 7 7 8 9 9 9 9 9 8 8 8 5 3 6 8 6 8 11 nan
nan 20 8 5 12 8 8 15 16 9 6 8 5 9 11 7 13 14 15 12 12 12 12 9 8 8 8 8 7 10 9 7 9 9 7 8 6 6 8 12 12 7 11 nan
nan 8 19 12 6 9 11 10 11 12 13 11 15 7 7 7 7 10 12 9 17 16 13 9 9 8 8 8 8 11 8 7 7 9 8 7 6 5 6 9 10 11 10 nan
nan 4 9 20 13 11 10 3 6 10 9 9 18 12 4 8 13 7 7 12 15 15 14 11 9 7 8 8 6 8 10 9 7 7 10 9 7 5 3 6 9 8 6 nan
nan 10 14 9 13 14 15 -1 -2 8 9 11 8 8 8 6 9 12 10 12 9 13 14 12 9 8 8 8 8 7 8 8 8 8 7 9 7 3 7 5 6 8 9 nan
nan 9 11 8 12 7 9 9 3 5 6 12 7 6 10 10 6 10 7 12 15 15 15 13 10 8 9 9 9 8 8 8 9 6 6 7 10 7 8 5 1 5 6 nan
nan 18 18 16 6 4 7 12 11 10 6 6 3 7 11 6 13 14 11 12 19 20 16 14 12 9 8 10 10 9 8 8 9 9 6 7 9 8 7 8 7 5 6 nan
nan 12 14 15 17 10 4 -2 -0 11 14 8 8 9 14 4 6 10 5 7 13 20 17 13 12 11 10 9 9 10 10 9 7 9 8 7 9 9 7 7 9 9 8 nan
nan 8 13 1 4 20 16 13 7 5 6 3 11 15 3 2 7 5 3 8 12 16 18 16 14 12 11 9 9 9 9 8 9 9 9 9 8 9 7 8 8 9 9 nan
nan 14 8 9 6 14 14 10 15 11 7 11 7 4 -1 1 6 6 9 10 12 12 14 14 12 11 11 10 10 10 9 9 9 9 9 9 9 9 9 9 9 7 8 nan
nan 14 12 12 12 13 15 8 12 13 11 12 7 5 6 4 5 6 8 8 11 11 10 12 12 10 10 11 11 11 10 11 10 9 9 8 10 9 9 9 10 9 9 nan
nan 12 12 12 11 10 10 9 8 9 7 9 12 11 10 6 7 9 8 7 9 13 14 11 9 11 12 12 11 11 11 12 11 10 8 8 9 10 9 9 9 10 10 nan
nan 13 9 7 9 7 6 6 6 12 11 9 9 10 8 7 8 10 9 11 10 10 8 14 18 14 14 14 12 11 11 12 11 10 9 10 10 10 9 10 10 9 10 nan
nan 14 12 8 7 7 18 15 12 12 11 12 11 7 4 10 7 5 14 14 12 10 11 11 11 12 15 16 15 15 12 12 11 9 11 11 11 10 11 11 11 10 9 nan
nan 11 10 11 9 7 6 16 17 11 13 9 6 8 11 11 8 8 12 8 10 11 12 12 11 9 10 14 17 16 15 13 11 10 10 11 11 11 12 11 10 11 11 nan
nan 3 9 14 4 6 17 16 11 10 6 9 9 8 9 11 17 12 -0 7 9 11 15 15 11 11 13 13 15 17 17 14 12 11 12 12 12 12 11 11 11 11 10 nan
nan 4 6 10 10 9 7 8 11 14 6 0 5 6 9 14 17 3 -1 8 9 13 14 13 16 18 16 14 16 17 17 17 15 15 14 14 14 12 12 14 14 15 13 nan
nan 13 10 3 6 7 8 8 13 8 0 2 9 11 11 9 7 4 5 9 12 11 12 13 17 15 16 18 20 22 21 15 15 21 24 20 18 17 13 12 15 15 15 nan
nan 9 12 11 9 9 15 19 9 8 6 9 11 15 14 10 7 10 11 10 9 11 12 15 14 11 12 17 21 22 17 18 19 17 16 16 17 19 18 13 11 13 11 nan
nan 9 10 13 9 9 10 14 12 9 11 9 11 14 17 14 12 11 12 10 9 10 12 13 11 12 10 12 17 14 12 16 14 11 11 10 11 13 14 14 11 9 9 nan
nan 11 8 11 9 8 8 3 4 9 10 10 11 10 11 13 14 13 10 10 11 8 10 13 11 10 9 11 13 13 15 13 12 10 10 11 10 10 13 14 12 13 12 nan
nan 12 8 9 12 10 7 3 4 9 11 10 10 9 10 12 10 11 13 11 8 12 11 13 13 10 10 11 13 15 17 13 11 10 9 10 10 9 7 10 15 18 21 nan
nan nan nan nan nan nan nan nan nan nan nan nan nan nan nan nan nan nan nan nan nan nan nan nan nan nan nan nan nan nan nan nan nan nan nan nan nan nan nan nan nan nan nan nan
CAPE
0 0 0 0 0 0 0 0 0 0 0 0 0 0 0 0 0 17 74 129 186 193 31 0 0 3 11 8 13 3 6 3 9 8 16 35 22 0 11 25 69 131 108 142
0 0 0 0 0 0 0 0 0 0 0 0 0 0 0 0 0 0 55 131 204 251 62 0 0 1 4 13 23 3 4 8 5 12 0 6 48 45 13 7 40 108 150 132
0 0 0 0 0 0 0 0 0 0 0 0 0 0 0 0 0 0 14 53 127 248 162 9 0 0 3 6 3 26 35 9 4 2 14 27 41 1 18 18 14 56 153 198
0 0 0 0 0 0 0 0 0 0 0 0 0 0 0 0 0 0 0 46 69 168 147 37 1 0 0 1 11 22 34 35 17 11 12 22 3 8 0 18 42 87 124 162
0 0 0 0 0 0 0 0 0 0 0 0 0 0 0 0 0 0 0 0 43 77 142 72 18 0 0 0 7 11 21 16 10 15 12 8 2 0 0 6 45 98 79 114
0 0 0 0 0 0 0 0 0 0 0 0 0 0 0 0 0 0 0 0 0 22 87 99 31 0 0 0 1 8 7 14 12 11 12 12 11 0 0 5 5 8 36 83
0 0 0 0 0 0 0 0 0 0 1 0 0 0 0 0 0 0 0 0 0 10 70 110 69 18 10 0 0 1 6 6 15 12 14 17 20 7 0 0 0 0 41 37
0 0 0 0 0 0 0 0 0 0 2 0 0 0 0 0 0 0 0 0 0 1 62 125 105 56 36 0 0 0 2 5 16 23 13 16 28 18 0 0 0 0 0 16
0 0 0 0 0 0 0 0 0 0 0 1 13 0 0 0 0 0 0 0 0 0 66 135 149 112 61 7 0 0 0 0 12 12 15 14 26 24 21 1 0 0 7 0
1 6 0 2 2 0 2 0 0 0 3 15 6 2 0 0 0 0 0 0 0 0 35 129 204 163 118 35 0 0 0 0 0 8 17 17 19 18 25 37 23 8 23 17
0 25 15 2 1 0 0 0 0 8 4 13 14 15 0 0 0 0 0 0 0 0 76 195 213 195 169 111 31 1 0 0 0 1 5 7 8 11 26 21 30 22 25 9
0 0 16 27 0 0 5 13 10 15 10 5 26 14 0 0 0 0 0 0 15 0 4 105 258 268 156 156 97 40 7 0 0 0 0 2 5 7 9 11 7 36 30 39
49 0 0 0 0 0 0 0 0 11 15 21 30 7 0 0 0 0 0 21 34 17 0 86 130 239 277 193 145 95 56 23 0 0 0 0 5 6 8 3 3 8 9 14
37 65 1 10 1 12 8 4 6 0 9 3 5 8 1 0 0 0 0 0 1 2 0 4 88 102 197 233 210 142 107 74 26 0 0 6 32 33 16 1 3 8 3 9
30 5 4 5 0 1 4 3 1 13 8 14 14 4 0 0 0 0 0 0 0 0 0 0 0 3 63 133 229 195 147 117 69 33 3 41 24 0 0 0 0 0 3 1
0 3 1 0 0 0 0 0 0 0 11 15 10 11 0 0 0 0 0 0 0 0 0 0 0 0 0 58 163 202 185 156 113 61 60 10 1 0 0 0 0 0 0 0
0 32 4 0 0 0 0 0 0 26 30 34 40 29 0 0 0 2 0 0 0 0 0 0 0 0 0 0 7 131 257 208 152 113 70 39 19 32 35 16 5 4 20 19
0 18 45 1 0 0 0 0 2 32 17 6 0 0 0 1 27 15 0 0 0 0 0 0 0 0 0 0 0 14 79 223 245 202 156 104 66 58 55 55 42 52 83 86
0 4 56 46 20 0 0 0 0 28 1 0 0 0 0 0 26 76 3 0 0 0 0 0 0 0 0 0 0 0 0 46 163 232 232 192 129 92 59 44 22 31 70 120
3 12 60 55 25 1 0 0 0 0 0 0 0 0 0 0 79 100 2 0 0 0 0 0 0 0 0 0 0 0 0 1 67 122 194 199 181 139 145 149 119 102 89 41
22 46 27 57 45 8 0 0 8 0 20 0 0 0 0 1 5 0 0 0 0 0 0 0 0 0 0 1 0 2 8 6 11 53 98 118 136 156 170 103 0 1 3 0
22 30 47 55 32 14 0 0 2 41 0 0 25 29 27 14 40 11 0 0 0 0 0 0 0 3 3 1 8 10 2 2 1 2 1 1 1 0 0 0 0 0 0 1
55 19 34 18 40 96 61 34 1 0 1 0 0 0 0 0 0 0 0 0 0 0 0 0 0 1 5 7 2 4 4 1 1 1 1 1 1 1 3 3 4 8 3 2
17 28 57 37 33 45 69 21 0 0 1 0 0 0 0 0 0 0 0 0 0 0 0 0 0 0 0 3 2 0 5 1 3 3 1 1 3 2 0 2 1 1 1 1
37 40 8 9 12 49 3 1 0 0 0 0 0 0 0 0 0 0 0 0 0 0 0 2 1 0 1 1 3 2 0 0 0 1 1 1 1 1 1 2 2 2 1 0
38 28 48 38 15 5 7 0 0 0 0 0 0 0 0 0 0 1 2 7 1 0 0 1 0 0 2 2 5 4 1 0 0 0 1 2 3 3 1 1 3 8 4 3